Starlink 32752

operational
NORAD ID: 62567 Int'l Des: 2025-006 Owner: SPXS Country: US Constellation: starlink
LEOCIRCULAR

关于 Starlink 32752

正在加载描述...

实时位置

正在加载3D地球...

即将过境

高度历史

Altitude vs Time

uPlot chart will show altitude changes over time

两行轨道根数

1 62567U 25006P 25302.34127899 .00050169 00000-0 18175-2 0 9999
2 62567 42.9979 314.4468 0000878 117.6947 242.3993 15.27630243 44773
Epoch: Oct 29, 2025 • Age: 12 hours

当前状态

高度 487.9 km
速度 7.62 km/s
星下点 -21.97°S, 177.18°E
发射日期 Jan 10, 2025
运行时间 0.7 years
类型 internet

技术详情

分类 Payload
质量 730.00 kg
干质量 700.00 kg
总质量 730.00 kg
长度 0.30 m
直径 4.10 m
跨度 29.00 m
形状 Box + pan
制造商 SPXS
平台类型 Starlink V2M
阶段状态 In Orbit
所有者/国家 SPXS/US

大型星座

Loading constellations...